Regional Weather Roundup
Issued by NWS

Home | Current Version | Previous Version | Text Only | Print | Product List | Glossary Off
Versions: 1 2 3 4 5 6 7 8 9 10 11 12 13 14 15 16 17 18 19 20 21 22 23 24 25 26 27 28 29 30 31 32 33 34 35 36 37 38 39 40 41 42 43 44 45 46 47 48 49 50

000
ASUS43 KMKX 240300
RWRWI

WISCONSIN REGIONAL WEATHER ROUNDUP
NATIONAL WEATHER SERVICE MILWAUKEE/SULLIVAN WI
1000 PM CDT WED APR 23 2014

NOTE: "FAIR" INDICATES FEW OR NO CLOUDS BELOW 12,000 FEET WITH NO
SIGNIFICANT WEATHER AND/OR OBSTRUCTIONS TO VISIBILITY.

WIZ001-002-006>008-014>016-023>028-240400-
NORTHWEST WISCONSIN

CITY           SKY/WX    TMP DP  RH WIND       PRES   REMARKS
SUPERIOR ARPT  CLOUDY    34  32  92 E5        30.03S WCI  30
ASHLAND        CLOUDY    36  29  75 CALM      30.04R
HAYWARD        LGT RAIN  44  33  65 SE9       30.02R
SIREN          RAIN      41  36  81 SE6       30.01R
RICE LAKE      LGT RAIN  41  36  83 E10       30.03R
LADYSMITH      CLOUDY    47  26  43 SE5       30.03R
EAU CLAIRE     NOT AVBL
MENOMONIE      RAIN      41  40  97 E9        30.00R
NEW RICHMOND   LGT RAIN  40  39  95 SE7       29.98R
OSCEOLA        LGT RAIN  41  40  95 E9        30.01R
$$

WIZ003>005-009-010-017-018-240400-
NORTH CENTRAL WISCONSIN

CITY           SKY/WX    TMP DP  RH WIND       PRES   REMARKS
WOODRUFF       CLOUDY    46  22  38 S8        30.03S
RHINELANDER    CLOUDY    43  16  33 SE6       30.06R
EAGLE RIVER    CLOUDY    44  19  36 S7        30.04R
LAND O LAKES   CLOUDY    45  18  34 S5        30.04R
PHILLIPS       CLOUDY    46  25  44 SE7       30.02R
TOMAHAWK       CLOUDY    44  22  42 CALM      30.05R
MEDFORD        CLOUDY    44  26  48 SE6       30.03R
MERRILL        CLOUDY    45  22  40 SE3       30.05R
$$

WIZ029-030-035-036-043>047-240400-
CENTRAL WISCONSIN

CITY           SKY/WX    TMP DP  RH WIND       PRES   REMARKS
WAUSAU         CLOUDY    45  24  43 SE9       30.04R
MOSINEE        CLOUDY    45  27  49 E8        30.05R
MARSHFIELD     CLOUDY    45  29  53 SE9       30.03R
STEVENS POINT  CLOUDY    44  28  53 E9        30.05R
WAUPACA        CLOUDY    45  21  39 E12       30.07S
WAUTOMA        NOT AVBL
WISC RAPIDS    CLOUDY    46  25  43 SE10      30.06R
CAMP DOUGLAS   LGT RAIN  43  43 100 SE7       30.03R
$$

WIZ011>013-019>022-031-037>040-048>050-240400-
NORTHEAST WISCONSIN

CITY           SKY/WX    TMP DP  RH WIND       PRES   REMARKS
ANTIGO         CLOUDY    41  22  46 SE9       30.05S
STURGEON BAY   MOCLDY    37  12  35 SE5       30.11S WCI  34
GREEN BAY      CLOUDY    42  10  27 E9        30.10S
MANITOWOC      NOT AVBL
APPLETON       MOCLDY    43   3  19 E7        30.08F
CLINTONVILLE   CLOUDY    43  18  36 E7        30.08S
OSHKOSH        CLOUDY    43  13  29 E9        30.07S
$$

WIZ032>034-041-042-053>061-240400-
SOUTHWEST WISCONSIN

CITY           SKY/WX    TMP DP  RH WIND       PRES   REMARKS
LA CROSSE      CLOUDY    45  39  79 E14G22    29.98F
SPARTA         RAIN      43  39  86 SE7       30.03R
VIROQUA        CLOUDY    42  38  87 E15       29.98F
BOSCOBEL       CLOUDY    48  35  60 E12       30.00F
PRAIRIE DU CHI CLOUDY    46  37  70 E10       29.98R
PLATTEVILLE    CLOUDY    45  38  75 E17G23    29.99S
$$

WIZ056-057-062-063-064-067-068-240400-
SOUTH CENTRAL WISCONSIN

CITY           SKY/WX    TMP DP  RH WIND       PRES   REMARKS
BARABOO/DELLS  RAIN      43  35  73 SE6       30.04R
LONE ROCK      NOT AVBL
WATERTOWN      CLOUDY    43  23  46 E8        30.05F
MADISON        LGT RAIN  41  32  70 E9        30.04R
MIDDLETON      CLOUDY    43  32  66 E9        30.03S
MONROE         RAIN      42  34  73 E8        30.02R
JANESVILLE     LGT RAIN  45  28  53 E14       30.02F
$$

WIZ051-052-058>065-066-070>072-240400-
SOUTHEAST WISCONSIN

CITY           SKY/WX    TMP DP  RH WIND       PRES   REMARKS
MILWAUKEE      CLOUDY    38  21  50 E6        30.09F WCI  33
WAUKESHA       CLOUDY    37  12  35 E7        30.09F WCI  32
MILWAUKEE/TIMM CLOUDY    37  12  35 E7        30.09  WCI  32
RACINE         CLOUDY    38  21  50 E7        30.10F WCI  33
BURLINGTON     CLOUDY    39  19  44 E12       30.07F WCI  32
KENOSHA        CLOUDY    38  22  52 E9        30.08F WCI  31
FOND DU LAC    CLOUDY    43   7  22 E8        30.08R
SHEBOYGAN      CLOUDY    38  12  34 E3        30.09F
WEST BEND      CLOUDY    37   9  30 E6        30.08F WCI  33
JUNEAU         CLOUDY    42  13  31 E10       30.07S
$$

LSZ147-162-240400-
LAKE SUPERIOR

STATION/POSITION TIME  TEMP    WIND        PRES    WAVE
                       AIR SEA DIR/SP/G            HT/PER
                 (UTC) (F)     (DEG/KT/KT) (MB)    (FT/S)
DEVILS ISLAND    0200   35      90/  8/ 10 1017.7F
PORT WING        0200   34      50/  3/  6 1016.9
SAXON HARBOR     0200             CALM     1016.3S
$$

LMZ867-665-643>646-240400-
LAKE MICHIGAN

STATION/POSITION TIME  TEMP    WIND        PRES    WAVE
                       AIR SEA DIR/SP/G            HT/PER
                 (UTC) (F)     (DEG/KT/KT) (MB)    (FT/S)
NORTHPORT PIER   0200   39     180/  2/  5 1020.3R
SISTER BAY       0208   39        CALM       N/A
KEWAUNEE LAKESHO 0200   39      10/  1/  1 1020.5F
SHEBOYGAN LAKESH 0200   38      50/  6/  7 1020.4F
PORT WASHINGTON  0200   38      60/  5/  7 1020.0F
MILWAUKEE LAKESH 0200   37      40/  5/  6   N/A
KENOSHA   LAKESH 0200   38      50/  7/  7   N/A
$$

TC  - TEMPERATURE IN CELSIUS
VSB - VISIBILITY IN STATUTE MILES
WCI - WIND CHILL INDEX
HX  - HEAT INDEX




USA.gov is the U.S. government's official web portal to all federal, state and local government web resources and services.